THOR ABLESTAR DEB, 261

Orbit data source: Space-Track

THOR ABLESTAR DEB, 261 is space debris in LEO originally from a launch on Thu, 29 Jun 1961 UTC launched from the Air Force Eastern Test Range (AFETR). Debris objects in space refer to the collection of defunct objects orbiting the Earth. Examples of debris include non-operational satellites, rocket bodies, and fragments generated from explosions, collisions, or faulty payload assembly.

Loading next visibility...
Identifier
261, 1961-015CH
Orbit
LEO
Country
Flag of USUS
Related business
Manufacturer
Unknown
Mission
Spacecraft
Bus & Motor
Unknown
Mass
Unknown
Launch date (UTC)
1961-06-29 (65 years ago)
Launch vehicle
Unknown
Launch site
Air Force Eastern Test Range (AFETR)
Object type
Payload
Rocket body
Debris
Shape & HBR
Unknown shape, 0.1 m
Radar Cross Section
Small (<0.1 m²)

Expand to show TLE details & history
Last TLE update: 8 hours ago

TLE from 8 hours ago
0 THOR ABLESTAR DEB
1 00261U 61015CH  26144.95115683  .00000111  00000-0  12301-3 0  9990
2 00261  66.6797 110.3718 0089769 345.6285  14.2246 14.01038579308834
Epoch: 2026-05-24T22:49Z
TLE epoch observation values (Epoch: 2026-05-24T22:49:39.950Z)
Latitude
-0°
Longitude
-114.5906°
Altitude
829.06 km
Speed
7.471 km/s
True Right ascension
07h 21m 29s
True Declination
0° 00' 00"
Sunlit
Object was in daylight at epoch
Visualization orbit readout
Latitude
Unknown
Longitude
Unknown
Altitude
Unknown
Speed
Unknown
Apparent Right ascension
Unknown
Apparent Declination
Unknown
Sunlit
N/A
Visualization observer readout
Local Sidereal Time
15:31:58
Azimuth
Unknown
Elevation
Unknown
Doppler factor
Unknown
Orbital elements
Apogee altitude
953.833 km
Perigee altitude
823.367 km
Semi-major axis
7,266.737 km
Eccentricity
0.00898
Inclination
66.6797°
RAAN
110.3718°
Arg. of periapsis
345.6285°
True anomaly
14.48015°
Mean anomaly
14.2246°
Eccentric anomaly
14.35209°
Mean motion
3.50376 °/min
Orbital period
102.75 mins
BSTAR
0.00012301

Documentation

Showing up to 5 results
|